When you browse on this site, cookies collect data to enhance your experience and personalize the content and advertising you see.
Visit our Privacy Policy to learn more. By continuing to use the site, you agree to this use of cookies and data.
  • In Portugal
  • List of Countries
  • For 7 days
  • Water Temperature
  • Satellite Maps
  • Weather Map
  • Weather Widgets
  • user-avatar
    Login

    Hourly Weather Krasnoe Lyado

    Today, 17 July, Wednesday

    Time Temperature Precipitation Wind Pressure Humidity
    00:00 +11°C° 0 mm 1 mps 734 mmHg 92%
    01:00 +11°C° 0 mm 1 mps 734 mmHg 93%
    02:00 +11°C° 0 mm 1 mps 733 mmHg 95%
    03:00 +10°C° 0 mm 0 mps 733 mmHg 95%
    04:00 +11°C° 0 mm 0 mps 733 mmHg 94%
    05:00 +11°C° 0 mm 0 mps 733 mmHg 94%
    06:00 +13°C° 0 mm 0 mps 733 mmHg 89%
    07:00 +14°C° 0 mm 0 mps 733 mmHg 84%
    08:00 +15°C° 0 mm 0 mps 733 mmHg 79%
    09:00 +16°C° 0.1 mm 0 mps 733 mmHg 77%
    10:00 +17°C° 0.1 mm 0 mps 733 mmHg 74%
    11:00 +18°C° 0.1 mm 0 mps 733 mmHg 72%
    12:00 +19°C° 0.2 mm 0 mps 733 mmHg 70%
    13:00 +19°C° 0.2 mm 0 mps 733 mmHg 68%
    14:00 +20°C° 0.2 mm 0 mps 733 mmHg 66%
    15:00 +21°C° 0.3 mm 1 mps 732 mmHg 69%
    16:00 +21°C° 0.3 mm 1 mps 732 mmHg 73%
    17:00 +21°C° 0.3 mm 1 mps 732 mmHg 76%
    18:00 +19°C° 0.2 mm 1 mps 732 mmHg 81%
    19:00 +18°C° 0.2 mm 1 mps 732 mmHg 85%
    20:00 +15°C° 0.2 mm 1 mps 732 mmHg 90%
    21:00 +15°C° 0 mm 1 mps 732 mmHg 92%
    22:00 +14°C° 0 mm 1 mps 732 mmHg 94%
    23:00 +13°C° 0 mm 2 mps 732 mmHg 96%

    Tomorrow, 18 July, Thursday

    Time Temperature Precipitation Wind Pressure Humidity
    00:00 +13°C° 0 mm 1 mps 732 mmHg 97%
    01:00 +13°C° 0 mm 1 mps 732 mmHg 98%
    02:00 +13°C° 0 mm 1 mps 731 mmHg 98%
    03:00 +13°C° 0.1 mm 1 mps 731 mmHg 98%
    04:00 +13°C° 0.1 mm 1 mps 731 mmHg 98%
    05:00 +13°C° 0.1 mm 1 mps 731 mmHg 98%
    06:00 +14°C° 0.3 mm 1 mps 731 mmHg 98%
    07:00 +13°C° 0.3 mm 0 mps 731 mmHg 98%
    08:00 +13°C° 0.3 mm 0 mps 731 mmHg 97%
    09:00 +13°C° 0.8 mm 0 mps 731 mmHg 98%
    10:00 +13°C° 0.8 mm 0 mps 731 mmHg 98%
    11:00 +14°C° 0.8 mm 1 mps 730 mmHg 98%
    12:00 +15°C° 0.7 mm 1 mps 730 mmHg 97%
    13:00 +15°C° 0.7 mm 1 mps 730 mmHg 96%
    14:00 +16°C° 0.7 mm 1 mps 730 mmHg 95%
    15:00 +16°C° 0.5 mm 2 mps 730 mmHg 94%
    16:00 +16°C° 0.5 mm 2 mps 730 mmHg 93%
    17:00 +16°C° 0.5 mm 2 mps 730 mmHg 92%
    18:00 +16°C° 0.3 mm 2 mps 730 mmHg 94%
    19:00 +15°C° 0.3 mm 2 mps 730 mmHg 96%
    20:00 +14°C° 0.3 mm 2 mps 730 mmHg 98%
    21:00 +14°C° 0.9 mm 2 mps 730 mmHg 99%
    22:00 +14°C° 0.9 mm 2 mps 730 mmHg 99%
    23:00 +14°C° 0.9 mm 2 mps 731 mmHg 99%

    Day after tomorrow, 19 July, Friday

    Time Temperature Precipitation Wind Pressure Humidity
    00:00 +14°C° 0.7 mm 2 mps 731 mmHg 99%
    01:00 +14°C° 0.7 mm 2 mps 730 mmHg 99%
    02:00 +14°C° 0.7 mm 2 mps 730 mmHg 99%
    03:00 +14°C° 0.3 mm 2 mps 731 mmHg 99%
    04:00 +14°C° 0.3 mm 2 mps 731 mmHg 99%
    05:00 +14°C° 0.3 mm 2 mps 731 mmHg 99%
    06:00 +14°C° 0.1 mm 2 mps 731 mmHg 98%
    07:00 +15°C° 0.1 mm 2 mps 731 mmHg 98%
    08:00 +15°C° 0.1 mm 2 mps 731 mmHg 97%
    09:00 +15°C° 0.2 mm 2 mps 731 mmHg 96%
    10:00 +16°C° 0.2 mm 2 mps 732 mmHg 96%
    11:00 +16°C° 0.2 mm 2 mps 732 mmHg 95%
    12:00 +16°C° 1.3 mm 3 mps 732 mmHg 94%
    13:00 +17°C° 1.3 mm 3 mps 732 mmHg 94%
    14:00 +17°C° 1.3 mm 4 mps 732 mmHg 93%
    15:00 +17°C° 0.8 mm 4 mps 733 mmHg 94%
    16:00 +15°C° 0.8 mm 4 mps 733 mmHg 95%
    17:00 +15°C° 0.8 mm 4 mps 733 mmHg 95%
    18:00 +14°C° 0.4 mm 4 mps 733 mmHg 96%
    19:00 +14°C° 0.4 mm 3 mps 733 mmHg 97%
    20:00 +13°C° 0.4 mm 3 mps 733 mmHg 97%
    21:00 +13°C° 0.1 mm 3 mps 733 mmHg 98%
    22:00 +13°C° 0.1 mm 3 mps 734 mmHg 98%
    23:00 +13°C° 0.1 mm 3 mps 734 mmHg 98%

    20 July, Saturday

    Time Temperature Precipitation Wind Pressure Humidity
    00:00 +13°C° 0.1 mm 3 mps 734 mmHg 98%
    01:00 +13°C° 0.1 mm 3 mps 734 mmHg 98%
    02:00 +13°C° 0.1 mm 3 mps 734 mmHg 98%
    03:00 +13°C° 0.1 mm 3 mps 735 mmHg 98%
    04:00 +13°C° 0.1 mm 3 mps 735 mmHg 98%
    05:00 +13°C° 0.1 mm 3 mps 735 mmHg 98%
    06:00 +14°C° 0 mm 3 mps 736 mmHg 97%
    07:00 +14°C° 0 mm 3 mps 736 mmHg 97%
    08:00 +14°C° 0 mm 3 mps 736 mmHg 96%
    09:00 +16°C° 0.2 mm 3 mps 737 mmHg 94%
    10:00 +16°C° 0.2 mm 3 mps 737 mmHg 92%
    11:00 +17°C° 0.2 mm 3 mps 737 mmHg 90%
    12:00 +18°C° 0.7 mm 3 mps 738 mmHg 88%
    13:00 +18°C° 0.7 mm 3 mps 738 mmHg 86%
    14:00 +19°C° 0.7 mm 3 mps 738 mmHg 84%
    15:00 +19°C° 0.7 mm 3 mps 738 mmHg 86%
    16:00 +19°C° 0.7 mm 3 mps 738 mmHg 88%
    17:00 +18°C° 0.7 mm 3 mps 738 mmHg 90%
    18:00 +18°C° 0.2 mm 2 mps 739 mmHg 92%
    19:00 +17°C° 0.2 mm 2 mps 739 mmHg 95%
    20:00 +16°C° 0.2 mm 2 mps 739 mmHg 97%
    21:00 +15°C° 0 mm 2 mps 739 mmHg 97%
    22:00 +15°C° 0 mm 2 mps 739 mmHg 98%
    23:00 +14°C° 0 mm 2 mps 739 mmHg 98%

    21 July, Sunday

    Time Temperature Precipitation Wind Pressure Humidity
    00:00 +13°C° 0 mm 1 mps 740 mmHg 98%
    01:00 +13°C° 0 mm 1 mps 740 mmHg 98%
    02:00 +13°C° 0 mm 1 mps 740 mmHg 99%
    03:00 +13°C° 0 mm 1 mps 740 mmHg 99%
    04:00 +13°C° 0 mm 1 mps 740 mmHg 99%
    05:00 +13°C° 0 mm 1 mps 740 mmHg 99%
    06:00 +14°C° 0 mm 1 mps 741 mmHg 95%
    07:00 +15°C° 0 mm 1 mps 741 mmHg 91%
    08:00 +16°C° 0 mm 2 mps 741 mmHg 88%
    09:00 +17°C° 0 mm 2 mps 741 mmHg 79%
    10:00 +19°C° 0 mm 2 mps 741 mmHg 70%
    11:00 +20°C° 0 mm 2 mps 742 mmHg 61%
    12:00 +21°C° 0 mm 3 mps 741 mmHg 59%
    13:00 +21°C° 0 mm 3 mps 741 mmHg 57%
    14:00 +22°C° 0 mm 3 mps 741 mmHg 56%
    15:00 +21°C° 0.1 mm 3 mps 741 mmHg 59%
    16:00 +21°C° 0.1 mm 3 mps 741 mmHg 62%
    17:00 +20°C° 0.1 mm 3 mps 741 mmHg 65%
    18:00 +19°C° 0 mm 2 mps 742 mmHg 73%
    19:00 +18°C° 0 mm 1 mps 742 mmHg 81%
    20:00 +15°C° 0 mm 1 mps 742 mmHg 89%
    21:00 +15°C° 0 mm 1 mps 742 mmHg 91%
    22:00 +13°C° 0 mm 0 mps 742 mmHg 92%
    23:00 +12°C° 0 mm 0 mps 742 mmHg 94%

    22 July, Monday

    Time Temperature Precipitation Wind Pressure Humidity
    00:00 +12°C° 0 mm 0 mps 742 mmHg 94%
    01:00 +11°C° 0 mm 0 mps 742 mmHg 95%
    02:00 +11°C° 0 mm 0 mps 742 mmHg 95%
    03:00 +11°C° 0 mm 0 mps 742 mmHg 95%
    04:00 +12°C° 0 mm 0 mps 742 mmHg 94%
    05:00 +12°C° 0 mm 0 mps 743 mmHg 94%
    06:00 +14°C° 0 mm 0 mps 743 mmHg 87%
    07:00 +18°C° 0 mm 1 mps 743 mmHg 80%
    08:00 +20°C° 0 mm 1 mps 743 mmHg 73%
    09:00 +22°C° 0 mm 1 mps 743 mmHg 66%
    10:00 +23°C° 0 mm 1 mps 743 mmHg 60%
    11:00 +24°C° 0 mm 1 mps 743 mmHg 53%
    12:00 +25°C° 0.1 mm 1 mps 743 mmHg 52%
    13:00 +25°C° 0.1 mm 1 mps 743 mmHg 51%
    14:00 +25°C° 0.1 mm 1 mps 742 mmHg 50%
    15:00 +25°C° 0.1 mm 2 mps 742 mmHg 53%
    16:00 +24°C° 0.1 mm 2 mps 742 mmHg 57%
    17:00 +24°C° 0.1 mm 2 mps 742 mmHg 61%
    18:00 +21°C° 0.1 mm 2 mps 742 mmHg 69%
    19:00 +20°C° 0.1 mm 1 mps 742 mmHg 78%
    20:00 +18°C° 0.1 mm 1 mps 742 mmHg 87%
    21:00 +16°C° 0 mm 1 mps 742 mmHg 89%
    22:00 +15°C° 0 mm 1 mps 742 mmHg 91%
    23:00 +15°C° 0 mm 1 mps 742 mmHg 93%
    Show more